Regional Weather Roundup
Issued by NWS Newport/Morehead, NC

Current Version | Previous Version | Graphics & Text | Print | Product List | Glossary Off
Versions: 1 2 3 4 5 6 7 8 9 10 11 12 13 14 15 16 17 18 19 20 21 22 23 24 25 26 27 28 29 30 31 32 33 34 35 36 37 38 39 40 41 42 43 44 45 46 47 48 49 50

000
ASUS42 KMHX 251010
RWRMHX
WEATHER ROUNDUP FOR EASTERN NORTH CAROLINA
NATIONAL WEATHER SERVICE NEWPORT/MOREHEAD CITY NC
500 AM EST THU DEC 25 2014

NOTE: "FAIR" INDICATES FEW OR NO CLOUDS BELOW 12,000 FEET
WITH NO SIGNIFICANT WEATHER AND/OR OBSTRUCTIONS TO VISIBILITY

NCZ015>017-031-032-045>047-102-103-251100-
NORTH COAST

CITY           SKY/WX    TMP DP  RH WIND       PRES   REMARKS
EDENTON        CLOUDY    64  62  95 SW9       29.72R
ELIZABETH CITY CLOUDY    68  63  84 S6        29.69S
KITTY HAWK     CLOUDY    65  64  99 SW8       29.71S
MANTEO         CLOUDY    63  61  94 SW10      29.73S

$$

NCZ045>047-081-094-103-104-251100-
CENTRAL COAST

CITY           SKY/WX    TMP DP  RH WIND       PRES   REMARKS
FRISCO         CLOUDY    60  60 100 SW14      29.75S FOG
SWANQUARTER      N/A     57 N/A N/A SW8       29.71S

$$

NCZ095-097-098-100-101-251100-
SOUTHERN COAST

CITY           SKY/WX    TMP DP  RH WIND       PRES   REMARKS
BEAUFORT       CLOUDY    61  60  97 SW14      29.78R
CEDAR ISLAND     N/A     63 N/A N/A S3G9      29.77F
JACKSONVILLE   CLOUDY    65  62  90 SW10      29.78R
PINEY ISLAND   CLOUDY    65  62  90 S8        29.75F
WILMINGTON     LGT RAIN  63  57  81 W20G30    29.82R


$$

NCZ011>013-027>030-043-044-078>080-089-090>093-098-251100-
COASTAL PLAIN

CITY           SKY/WX    TMP DP  RH WIND       PRES   REMARKS
AHOSKIE        LGT RAIN  62  60  95 CALM      29.71R
CLINTON        CLOUDY    60  52  76 SW12      29.81R
ELIZABETHTOWN  CLOUDY    60  47  61 W9G18     29.82R
GOLDSBORO      CLOUDY    61  55  80 SW13      29.74R
GREENVILLE     DRIZZLE   64  63  94 SW8       29.77R
HAVELOCK       CLOUDY    65  62  90 SW10      29.78R
KENANSVILLE    CLOUDY    62  49  63 SW10G18   29.79R
KINSTON        CLOUDY    65  62  91 SW15G23   29.78R
NEW BERN       CLOUDY    66  62  87 SW7       29.77R
RICHLANDS      CLOUDY    64  61  88 SW10      29.78R
ROCKY MOUNT    CLOUDY    62  51  67 SW12      29.72F
WASHINGTON     CLOUDY    65  62  91 SW7       29.74R
WHITEVILLE     CLOUDY    60  48  64 SW7       29.83R

$$

AMZ130-135-150-152-154-156-158-170-250-252-270-ANZ085-086-088-633-658-670-251100-
MARINE OBSERVATIONS

STATION/POSITION TIME  TEMP    WIND        PRES    WAVE   SWELL
                       AIR SEA DIR/SP/G            HT/PER HT/PER
                 (UTC) (F)     (DEG/KT/KT) (MB)    (FT/S) (FT/S)
CHESAPEAKE LIGHT 0900   63     240/ 21/ 21 1005.3
64 E VA BEACH    1000   57 53  220/ 12/ 14 1005.5    6/ 8   5/ 8
DUCK             1000   63 50  220/ 11/ 14 1005.3
2 E DUCK         1000      50                N/A     3/ 7
10 NE DUCK       1000      50                N/A     4/ 8
OREGON INLET     1000   56 54  200/ 11/ 12 1006.9
13E OREGON INLT  1000      51                N/A     6/ 7   2/11
HATTERAS CG      1000   62 56  230/ 11/ 14 1007.9
DIAMOND BUOY     1000   70                 1007.3    8/ 9
17 S OCRACOKE    NOT AVBL
CAPE LOOKOUT     0900   61     220/ 10/ 13 1008.1
BEAUFORT LAB     1000   60 55  220/  4/  8 1007.2
30 SE NEW RIVER  1000   62 60  230/ 16/ 17 1009.3    7/ 8   5/ 8
5 SE WRIGHTSVLE  NOT AVBL
225 S CAPE HAT   0932   75 72  210/ 23/ 27 1012.5    8/ 7   2/16
41 SE CHARLESTON 1000   63 72  280/ 21/ 27 1011.9    7/ 8

$$


USA.gov is the U.S. government's official web portal to all federal, state and local government web resources and services.